Date String (YYYY-MM-DD hh:mm:ss) UTC,Instrument flags,Ambient pressure (hPa),Sample flow (lpm),Bypass flow (lpm),Sample temperature (°C),Ambient temperature (°C),ASC tube jacket temperature (°C),LED temperature (°C),Box temperature (°C),Sample RH (%),Span deviation,Mass concentration (μg/m³),Mass concentration (μg/m³),Mass concentration (μg/m³)
DateTimeUTC,F1_M11,P_M11,Q1_M11,Q2_M11,T1_M11,T2_M11,T3_M11,T4_M11,T5_M11,U1_M11,ZSPAN_M11,X0_M11,X2_M11,X1_M11
2021-09-16 09:00:00,,0823.4,5.01,0.00,30.0,29.1,00.0,39.1,31.7,09.3,0003.4,0011.32,0007.54,0007.14
2021-09-16 09:01:00,,0823.4,5.00,0.00,30.0,29.2,00.0,39.1,31.7,09.4,0003.3,0011.70,0007.57,0007.14
2021-09-16 09:02:00,,0823.3,4.99,0.00,30.0,29.2,00.0,39.1,31.7,09.4,0003.1,0011.85,0007.55,0007.13
2021-09-16 09:03:00,,0823.3,5.01,0.00,30.0,29.2,00.0,39.1,31.8,09.4,0002.9,0011.85,0007.56,0007.14
2021-09-16 09:04:00,,0823.4,5.01,0.00,30.0,29.2,00.0,39.1,31.8,09.4,0002.8,0012.29,0007.60,0007.15
2021-09-16 09:05:00,,0823.4,4.99,0.00,30.0,29.2,00.0,39.1,31.8,09.3,0002.6,0012.08,0007.63,0007.16
2021-09-16 09:06:00,,0823.3,4.99,0.00,30.0,29.2,00.0,39.1,31.8,09.3,0002.4,0012.00,0007.64,0007.16
2021-09-16 09:07:00,,0823.4,5.01,0.00,30.0,29.2,00.0,39.1,31.7,09.3,0001.9,0012.48,0007.68,0007.17
2021-09-16 09:08:00,,0823.4,5.00,0.00,30.0,29.2,00.0,39.1,31.7,09.3,0001.6,0012.74,0007.69,0007.18
2021-09-16 09:09:00,,0823.4,5.01,0.00,30.0,29.2,00.0,39.1,31.7,09.3,0001.5,0012.80,0007.71,0007.19
2021-09-16 09:10:00,,0823.3,4.99,0.00,30.0,29.2,00.0,39.1,31.7,09.2,0001.0,0012.69,0007.70,0007.21
2021-09-16 09:11:00,,0823.4,5.01,0.00,30.0,29.2,00.0,39.1,31.7,09.2,0000.4,0012.66,0007.70,0007.21
2021-09-16 09:12:00,,0823.3,5.00,0.00,30.0,29.2,00.0,39.1,31.7,09.3,0000.5,0012.36,0007.72,0007.22
2021-09-16 09:13:00,,0823.3,4.99,0.00,30.0,29.2,00.0,39.2,31.7,09.3,0000.7,0012.08,0007.73,0007.23
2021-09-16 09:14:00,,0823.3,5.01,0.00,30.0,29.2,00.0,39.2,31.8,09.3,0000.9,0011.94,0007.74,0007.25
2021-09-16 09:15:00,,0823.3,4.99,0.00,30.0,29.2,00.0,39.2,31.8,09.4,0000.8,0011.50,0007.68,0007.24
2021-09-16 09:16:00,,0823.3,5.00,0.00,30.0,29.2,00.0,39.2,31.7,09.3,0001.3,0011.37,0007.66,0007.24
2021-09-16 09:17:00,,0823.3,4.99,0.00,30.0,29.2,00.0,39.2,31.8,09.3,0001.7,0011.31,0007.66,0007.26
2021-09-16 09:18:00,,0823.3,4.99,0.00,30.0,29.2,00.0,39.2,31.7,09.4,0002.2,0010.86,0007.63,0007.25
2021-09-16 09:19:00,,0823.2,5.00,0.00,30.1,29.2,00.0,39.2,31.8,09.4,0002.6,0010.62,0007.63,0007.24
2021-09-16 09:20:00,,0823.2,5.01,0.00,30.1,29.3,00.0,39.2,31.7,09.3,0002.7,0010.52,0007.62,0007.25
2021-09-16 09:21:00,,0823.2,5.00,0.00,30.1,29.3,00.0,39.2,31.8,09.3,0002.8,0010.41,0007.58,0007.23
2021-09-16 09:22:00,,0823.2,4.99,0.00,30.1,29.3,00.0,39.2,31.7,09.3,0002.9,0010.29,0007.54,0007.22
2021-09-16 09:23:00,,0823.2,5.00,0.00,30.1,29.3,00.0,39.2,31.7,09.2,0002.9,0010.41,0007.52,0007.21
2021-09-16 09:24:00,,0823.1,5.00,0.00,30.1,29.0,00.0,39.2,31.7,09.2,0002.9,0010.44,0007.53,0007.20
2021-09-16 09:25:00,,0823.1,5.00,0.00,30.0,27.0,00.0,39.2,31.2,09.3,0003.0,0010.45,0007.52,0007.18
2021-09-16 09:26:00,,0823.1,4.99,0.00,29.8,26.1,00.0,39.1,31.0,09.4,0003.1,0010.70,0007.55,0007.19
2021-09-16 09:27:00,,0823.1,5.00,0.00,29.7,26.3,00.0,39.1,31.1,09.3,0002.8,0010.66,0007.54,0007.19
2021-09-16 09:28:00,,0823.1,4.99,0.00,29.7,26.8,00.0,39.0,31.1,09.3,0002.6,0010.60,0007.53,0007.17
2021-09-16 09:29:00,,0823.1,5.00,0.00,29.6,27.2,00.0,39.0,31.1,09.4,0002.5,0010.74,0007.59,0007.18
2021-09-16 09:30:00,,0823.1,5.01,0.00,29.6,27.5,00.0,38.9,31.1,09.4,0002.1,0010.80,0007.60,0007.18
2021-09-16 09:31:00,,0823.1,4.99,0.00,29.6,27.7,00.0,38.9,31.2,09.4,0002.3,0010.88,0007.62,0007.16
2021-09-16 09:32:00,,0823.1,5.01,0.00,29.6,27.9,00.0,38.9,31.2,09.3,0002.4,0010.97,0007.64,0007.16
2021-09-16 09:33:00,,0823.1,4.99,0.00,29.6,28.1,00.0,38.9,31.3,09.3,0002.4,0011.01,0007.63,0007.15
2021-09-16 09:34:00,,0823.1,5.00,0.00,29.6,28.2,00.0,38.8,31.3,09.3,0002.4,0010.94,0007.63,0007.15
2021-09-16 09:35:00,,0823.1,4.99,0.00,29.6,28.3,00.0,38.8,31.3,09.2,0002.5,0011.03,0007.57,0007.13
2021-09-16 09:36:00,,0823.1,5.00,0.00,29.6,28.4,00.0,38.8,31.3,09.3,0002.4,0010.98,0007.53,0007.12
2021-09-16 09:37:00,,0823.1,5.00,0.00,29.6,28.4,00.0,38.8,31.3,09.3,0002.3,0010.76,0007.51,0007.11
2021-09-16 09:38:00,,0823.1,4.99,0.00,29.6,28.5,00.0,38.8,31.3,09.3,0002.4,0010.83,0007.52,0007.09
2021-09-16 09:39:00,,0823.2,5.01,0.00,29.6,28.5,00.0,38.8,31.3,09.2,0002.4,0010.94,0007.48,0007.06
2021-09-16 09:40:00,,0823.1,4.99,0.00,29.6,28.6,00.0,38.8,31.3,09.2,0002.2,0011.39,0007.44,0007.04
2021-09-16 09:41:00,,0823.1,4.99,0.00,29.6,28.6,00.0,38.8,31.3,09.2,0002.3,0011.33,0007.41,0007.02
2021-09-16 09:42:00,,0823.1,5.00,0.00,29.6,28.7,00.0,38.8,31.4,09.2,0002.2,0011.25,0007.36,0007.00
2021-09-16 09:43:00,,0823.1,5.00,0.00,29.7,28.7,00.0,38.8,31.4,09.2,0002.2,0011.30,0007.38,0006.99
2021-09-16 09:44:00,,0823.1,5.01,0.00,29.7,28.7,00.0,38.8,31.4,09.1,0002.4,0011.91,0007.41,0006.98
2021-09-16 09:45:00,,0823.1,5.00,0.00,29.7,28.8,00.0,38.8,31.4,09.1,0002.8,0012.10,0007.40,0006.95
2021-09-16 09:46:00,,0823.1,4.99,0.00,29.7,28.8,00.0,38.8,31.4,09.1,0002.5,0012.16,0007.44,0006.95
2021-09-16 09:47:00,,0823.1,5.00,0.00,29.7,28.8,00.0,38.8,31.4,09.1,0002.3,0012.32,0007.45,0006.92
2021-09-16 09:48:00,,0823.2,5.00,0.00,29.7,28.8,00.0,38.8,31.4,09.1,0002.4,0012.55,0007.49,0006.90
2021-09-16 09:49:00,,0823.2,5.01,0.00,29.7,28.8,00.0,38.8,31.4,09.1,0002.5,0012.71,0007.48,0006.88
2021-09-16 09:50:00,,0823.2,5.00,0.00,29.7,28.8,00.0,38.8,31.4,09.1,0002.6,0013.39,0007.50,0006.86
2021-09-16 09:51:00,,0823.2,5.00,0.00,29.7,28.8,00.0,38.8,31.4,09.1,0003.1,0013.20,0007.48,0006.83
2021-09-16 09:52:00,,0823.2,4.99,0.00,29.7,28.8,00.0,38.8,31.4,09.0,0003.3,0013.46,0007.45,0006.81
2021-09-16 09:53:00,,0823.1,4.99,0.00,29.7,28.8,00.0,38.8,31.4,08.9,0003.4,0013.45,0007.42,0006.80
2021-09-16 09:54:00,,0823.2,5.00,0.00,29.7,28.9,00.0,38.8,31.4,08.9,0003.2,0013.43,0007.37,0006.76
2021-09-16 09:55:00,,0823.2,5.01,0.00,29.7,28.9,00.0,38.8,31.5,08.9,0003.1,0013.39,0007.35,0006.74
2021-09-16 09:56:00,,0823.2,5.01,0.00,29.7,28.9,00.0,38.9,31.5,08.9,0002.9,0013.06,0007.30,0006.72
2021-09-16 09:57:00,,0823.2,4.99,0.00,29.7,28.9,00.0,38.9,31.4,08.8,0002.9,0012.97,0007.26,0006.68
2021-09-16 09:58:00,,0823.2,4.99,0.00,29.7,28.9,00.0,38.9,31.4,08.7,0003.1,0012.89,0007.22,0006.66
2021-09-16 09:59:00,,0823.2,5.00,0.00,29.7,28.9,00.0,38.9,31.5,08.6,0003.1,0012.63,0007.14,0006.61
